Location: Unspecified
(49.2170°N, 0.0000°E)
Time: 17:34:08
(UTC+00:00)

Transit 4A - Pass Details

Date: 21 June 2019
Orbit: 863 x 981 km, 66.8° (Epoch: 17 August)

Event Time Altitude Azimuth Distance (km) Brightness Sun altitude
Rises 08:50:34 0° 215° (SW) 3,612 10.8 44.7°
Reaches altitude 10° 08:53:04 10° 216° (SW) 2,685 10.3 45.1°
Maximum altitude 08:59:23 85° 305° (NW) 983 8.8 46.1°
Drops below altitude 10° 09:05:51 10° 35° (NE) 2,743 10.6 47.1°
Sets 09:08:26 0° 36° (NE) 3,696 11.2 47.5°
